Location: Newark
(47.5000°N, 4.6167°E)
Time: 10:06:44
(UTC+00:00)

ISS - Pass Details

Date: 04 December 2021
Orbit: 413 x 422 km, 51.6° (Epoch: 19 January)

Event Time Altitude Azimuth Distance (km) Brightness Sun altitude
Rises 18:28:52 0° 291° (WNW) 2,380 1.1 -25.7°
Reaches altitude 10° 18:31:07 10° 280° (W) 1,510 0.0 -26.1°
Enters shadow 18:33:15 26° 248° (WSW) 866 -1.6 -26.4°
